星链-5764 (STARLINK-5764 )

导读

STARLINK-5764是美国太空探索技术公司SpaceX星链(Starlink)星座中的一颗通信卫星,于2023年2月12日发射升空。作为星链全球卫星互联网项目的组成部分,它运行在近地轨道,旨在为全球偏远地区提供高速低延迟宽带服务,推动实现全球范围的互联网覆盖,是SpaceX大规模星座组网计划中的一环。

Basic Information
目录编号:
55602
目录名称:
STARLINK-5764
国际标识:
2023-020AK
轨道中心:
EARTH
卫星名称:
星链-5764
卫星全名:
星链-5764 (STARLINK-5764 )
卫星状态:
在轨 (已飞行1300 天)
发射日期:
2023-02-12 UTC
国别 :
美国 (US)
星等 :
--
Orbit Information
数据来源 国际轨道数据 AOE轨道数据
星历时间 2026-09-04T05:58:02+0800
14小时前
查看轨道信息
2026-09-04T02:00:00+0800
18小时前
查看轨道信息
半长轴 6861.181km 6861.194km
偏心率 0.0000883 0.0000886
轨道倾角 43.001° 43.002°
近地点辐角 247.928° 250.223°
升交点赤经 67.941° 68.881°
平近点角 112.148° 279.753°
近地点 482.438km 482.449km
远地点 483.65km 483.665km
周期 94.267分钟 94.267分钟
每日圈数 15.275819 15.275775
Detailed Information
固有亮度:
5
最大亮度:
2.5
卫星平台:
Starlink v1.5
覆盖范围:
全球
运营商:
太空探索技术公司
运营商所在国:
美国
制造商(研发单位):
太空探索技术公司
制造商所在国:
美国
使用方式:
暂无
Satellite Introduction
星链(Starlink)计划是由太空探索技术公司(SpaceX)提出的一个巨型低轨卫星互联网星座项目,计划在2019年至2024年间在太空搭建由约1.2万颗卫星组成的“星链”网络,其中1584颗将部署在地球上空550千米处的近地轨道,并从2020年开始工作。该卫星仍在工作。
2D Orbit Map
3D Orbit Map
Orbit Altitude Analysis Chart
Orbit Inclination Analysis Chart
Orbit Comprehensive Analysis Chart
View Comprehensive Chart
Conjunction Data List
Event ID Objects TCA Miss Dist (km) Collision Risk Probability Collision Risk Index (CRI) Action
CDM_260828-121705-560206-228922
2026-08-28T
12:17:56+0000
0.377 km
远距离
2.899475E-4 高风险 0.84
CDM_260828-104305-560206-228922
2026-08-28T
10:43:47+0000
2.929 km
极远距离
1.085136E-6 低风险 0.36